This demonstration page uses our WeatherBlox Daily Observations layout. Learn more.

Left ArrowRight Arrow

39.29038, -76.61219

Hourly Observations for March 1, 2018

Temp ( °F °C ) Dew Point ( °F °C ) Humidity (%) Winds ( mph kmh ) Pressure ( in mb ) Visibility ( mi km ) Precip ( " mm )
12:54 am 00:54 undefined 54 12.2 40 4.4 59 59 undefined N/A 29.90 1013 N/A 0.00 0.00
1:54 am 01:54 undefined 54 12.2 40 4.4 59 59 undefined N/A 29.89 1012 N/A 0.00 0.00
2:54 am 02:54 undefined 53 11.7 41 5 64 64 undefined N/A 29.86 1011 N/A 0.00 0.00
3:54 am 03:54 undefined 51 10.6 43 6.1 74 74 undefined N/A 29.84 1011 N/A 0.00 0.00
4:54 am 04:54 undefined 50 10 42 5.6 74 74 undefined N/A 29.86 1011 N/A 0.00 0.00
5:54 am 05:54 undefined 50 10 42 5.6 74 74 undefined N/A 29.86 1011 N/A 0.00 0.00
6:54 am 06:54 undefined 50 10 42 5.6 74 74 undefined N/A 29.85 1011 N/A 0.00 0.00
7:54 am 07:54 undefined 51 10.6 42 5.6 71 71 undefined N/A 29.85 1011 N/A 0.00 0.00
8:54 am 08:54 undefined 51 10.6 43 6.1 74 74 undefined N/A 29.85 1011 N/A 0.00 0.00
9:54 am 09:54 undefined 53 11.7 43 6.1 69 69 undefined N/A 29.87 1011 N/A 0.00 0.00
10:54 am 10:54 undefined 53 11.7 44 6.7 72 72 undefined N/A 29.83 1010 N/A 0.00 0.00
11:54 am 11:54 undefined 53 11.7 46 7.8 77 77 undefined N/A 29.82 1010 N/A 0.01 0.25
12:54 pm 12:54 undefined 54 12.2 47 8.3 77 77 undefined N/A 29.78 1008 N/A 0.00 0.00
1:54 pm 13:54 undefined 54 12.2 46 7.8 75 75 undefined N/A 29.73 1007 N/A 0.00 0.00
2:54 pm 14:54 undefined 54 12.2 45 7.2 72 72 undefined N/A 29.71 1006 N/A 0.00 0.00
3:54 pm 15:54 undefined 53 11.7 46 7.8 77 77 undefined N/A 29.67 1005 N/A 0.00 0.00
4:54 pm 16:54 undefined 53 11.7 46 7.8 77 77 undefined N/A 29.64 1004 N/A 0.00 0.00
5:54 pm 17:54 undefined 51 10.6 49 9.4 92 92 undefined N/A 29.60 1002 N/A 0.02 0.51
6:54 pm 18:54 undefined 50 10 49 9.4 96 96 undefined N/A 29.57 1002 N/A 0.04 1.02
7:54 pm 19:54 undefined 50 10 49 9.4 96 96 undefined N/A 29.57 1001 N/A 0.10 2.54
8:54 pm 20:54 undefined 49 9.4 48 8.9 97 97 undefined N/A 29.52 1000 N/A 0.22 5.59
9:54 pm 21:54 undefined 48 8.9 47 8.3 96 96 undefined N/A 29.47 998 N/A 0.12 3.05
10:54 pm 22:54 undefined 48 8.9 46 7.8 93 93 undefined N/A 29.45 997 N/A 0.01 0.25
11:54 pm 23:54 undefined 48 8.9 46 7.8 93 93 undefined N/A 29.43 997 N/A 0.06 1.52

Powered by AerisWeather